Year,Month,Day,Hour,Minute,Value (Times are PST for temperature in C)
2018,10,17,00,00,8.80
2018,10,17,00,01,8.80
2018,10,17,00,02,8.70
2018,10,17,00,03,8.70
2018,10,17,00,04,8.70
2018,10,17,00,05,8.70
2018,10,17,00,06,8.70
2018,10,17,00,07,8.70
2018,10,17,00,08,8.70
2018,10,17,00,09,8.70
2018,10,17,00,10,8.70
2018,10,17,00,11,8.70
2018,10,17,00,12,8.70
2018,10,17,00,13,8.60
2018,10,17,00,14,8.60
2018,10,17,00,15,8.60
2018,10,17,00,16,8.60
2018,10,17,00,17,8.60
2018,10,17,00,18,8.60
2018,10,17,00,19,8.60
2018,10,17,00,20,8.60
2018,10,17,00,21,8.60
2018,10,17,00,22,8.60
2018,10,17,00,23,8.50
2018,10,17,00,24,8.50
2018,10,17,00,25,8.50
2018,10,17,00,26,8.50
2018,10,17,00,27,8.50
2018,10,17,00,28,8.50
2018,10,17,00,29,8.40
2018,10,17,00,30,8.40
2018,10,17,00,31,8.40
2018,10,17,00,32,8.40
2018,10,17,00,33,8.40
2018,10,17,00,34,8.40
2018,10,17,00,35,8.40
2018,10,17,00,36,8.40
2018,10,17,00,37,8.40
2018,10,17,00,38,8.30
2018,10,17,00,39,8.30
2018,10,17,00,40,8.30
2018,10,17,00,41,8.30
2018,10,17,00,42,8.30
2018,10,17,00,43,8.30
2018,10,17,00,44,8.30
2018,10,17,00,45,8.30
2018,10,17,00,46,8.20
2018,10,17,00,47,8.20
2018,10,17,00,48,8.20
2018,10,17,00,49,8.20
2018,10,17,00,50,8.20
2018,10,17,00,51,8.20
2018,10,17,00,52,8.20
2018,10,17,00,53,8.20
2018,10,17,00,54,8.10
2018,10,17,00,55,8.10
2018,10,17,00,56,8.10
2018,10,17,00,57,8.10
2018,10,17,00,58,8.10
2018,10,17,00,59,8.10
2018,10,17,01,00,8.10
2018,10,17,01,01,8.10
2018,10,17,01,02,8.10
2018,10,17,01,03,8.10
2018,10,17,01,04,8.00
2018,10,17,01,05,8.00
2018,10,17,01,06,8.00
2018,10,17,01,07,8.00
2018,10,17,01,08,8.00
2018,10,17,01,09,8.00
2018,10,17,01,10,8.00
2018,10,17,01,11,8.00
2018,10,17,01,12,8.00
2018,10,17,01,13,8.00
2018,10,17,01,14,8.00
2018,10,17,01,15,7.90
2018,10,17,01,16,7.90
2018,10,17,01,17,7.90
2018,10,17,01,18,7.90
2018,10,17,01,19,7.90
2018,10,17,01,20,7.90
2018,10,17,01,21,7.90
2018,10,17,01,22,7.90
2018,10,17,01,23,7.90
2018,10,17,01,24,7.90
2018,10,17,01,25,7.90
2018,10,17,01,26,7.90
2018,10,17,01,27,7.90
2018,10,17,01,28,7.90
2018,10,17,01,29,7.90
2018,10,17,01,30,7.80
2018,10,17,01,31,7.80
2018,10,17,01,32,7.80
2018,10,17,01,33,7.80
2018,10,17,01,34,7.80
2018,10,17,01,35,7.80
2018,10,17,01,36,7.80
2018,10,17,01,37,7.80
2018,10,17,01,38,7.80
2018,10,17,01,39,7.80
2018,10,17,01,40,7.80
2018,10,17,01,41,7.80
2018,10,17,01,42,7.80
2018,10,17,01,43,7.80
2018,10,17,01,44,7.80
2018,10,17,01,45,7.80
2018,10,17,01,46,7.80
2018,10,17,01,47,7.70
2018,10,17,01,48,7.70
2018,10,17,01,49,7.70
2018,10,17,01,50,7.70
2018,10,17,01,51,7.70
2018,10,17,01,52,7.70
2018,10,17,01,53,7.70
2018,10,17,01,54,7.70
2018,10,17,01,55,7.70
2018,10,17,01,56,7.60
2018,10,17,01,57,7.60
2018,10,17,01,58,7.60
2018,10,17,01,59,7.60
2018,10,17,02,00,7.60
2018,10,17,02,01,7.60
2018,10,17,02,02,7.60
2018,10,17,02,03,7.60
2018,10,17,02,04,7.60
2018,10,17,02,05,7.60
2018,10,17,02,06,7.60
2018,10,17,02,07,7.50
2018,10,17,02,08,7.50
2018,10,17,02,09,7.50
2018,10,17,02,10,7.50
2018,10,17,02,11,7.50
2018,10,17,02,12,7.50
2018,10,17,02,13,7.50
2018,10,17,02,14,7.40
2018,10,17,02,15,7.40
2018,10,17,02,16,7.40
2018,10,17,02,17,7.40
2018,10,17,02,18,7.40
2018,10,17,02,19,7.40
2018,10,17,02,20,7.40
2018,10,17,02,21,7.40
2018,10,17,02,22,7.40
2018,10,17,02,23,7.40
2018,10,17,02,24,7.40
2018,10,17,02,25,7.40
2018,10,17,02,26,7.30
2018,10,17,02,27,7.30
2018,10,17,02,28,7.30
2018,10,17,02,29,7.30
2018,10,17,02,30,7.30
2018,10,17,02,31,7.30
2018,10,17,02,32,7.40
2018,10,17,02,33,7.30
2018,10,17,02,34,7.30
2018,10,17,02,35,7.30
2018,10,17,02,36,7.30
2018,10,17,02,37,7.30
2018,10,17,02,38,7.30
2018,10,17,02,39,7.30
2018,10,17,02,40,7.30
2018,10,17,02,41,7.30
2018,10,17,02,42,7.30
2018,10,17,02,43,7.30
2018,10,17,02,44,7.30
2018,10,17,02,45,7.30
2018,10,17,02,46,7.30
2018,10,17,02,47,7.30
2018,10,17,02,48,7.30
2018,10,17,02,49,7.30
2018,10,17,02,50,7.30
2018,10,17,02,51,7.30
2018,10,17,02,52,7.30
2018,10,17,02,53,7.30
2018,10,17,02,54,7.30
2018,10,17,02,55,7.30
2018,10,17,02,56,7.30
2018,10,17,02,57,7.30
2018,10,17,02,58,7.30
2018,10,17,02,59,7.30
2018,10,17,03,00,7.30
2018,10,17,03,01,7.20
2018,10,17,03,02,7.20
2018,10,17,03,03,7.20
2018,10,17,03,04,7.20
2018,10,17,03,05,7.20
2018,10,17,03,06,7.20
2018,10,17,03,07,7.20
2018,10,17,03,08,7.20
2018,10,17,03,09,7.20
2018,10,17,03,10,7.20
2018,10,17,03,11,7.20
2018,10,17,03,12,7.20
2018,10,17,03,13,7.20
2018,10,17,03,14,7.20
2018,10,17,03,15,7.10
2018,10,17,03,16,7.10
2018,10,17,03,17,7.10
2018,10,17,03,18,7.10
2018,10,17,03,19,7.10
2018,10,17,03,20,7.10
2018,10,17,03,21,7.10
2018,10,17,03,22,7.10
2018,10,17,03,23,7.10
2018,10,17,03,24,7.10
2018,10,17,03,25,7.10
2018,10,17,03,26,7.10
2018,10,17,03,27,7.10
2018,10,17,03,28,7.10
2018,10,17,03,29,7.10
2018,10,17,03,30,7.10
2018,10,17,03,31,7.00
2018,10,17,03,32,7.00
2018,10,17,03,33,7.00
2018,10,17,03,34,7.00
2018,10,17,03,35,7.00
2018,10,17,03,36,7.00
2018,10,17,03,37,7.00
2018,10,17,03,38,7.00
2018,10,17,03,39,7.00
2018,10,17,03,40,7.00
2018,10,17,03,41,7.00
2018,10,17,03,42,7.00
2018,10,17,03,43,6.90
2018,10,17,03,44,6.90
2018,10,17,03,45,6.90
2018,10,17,03,46,6.90
2018,10,17,03,47,6.90
2018,10,17,03,48,6.90
2018,10,17,03,49,6.90
2018,10,17,03,50,6.90
2018,10,17,03,51,6.90
2018,10,17,03,52,6.90
2018,10,17,03,53,6.90
2018,10,17,03,54,6.90
2018,10,17,03,55,6.90
2018,10,17,03,56,6.90
2018,10,17,03,57,6.90
2018,10,17,03,58,6.90
2018,10,17,03,59,6.90
2018,10,17,04,00,6.90
2018,10,17,04,01,6.90
2018,10,17,04,02,6.90
2018,10,17,04,03,6.90
2018,10,17,04,04,6.90
2018,10,17,04,05,6.90
2018,10,17,04,06,6.90
2018,10,17,04,07,6.90
2018,10,17,04,08,6.90
2018,10,17,04,09,6.90
2018,10,17,04,10,6.90
2018,10,17,04,11,6.90
2018,10,17,04,12,6.90
2018,10,17,04,13,6.90
2018,10,17,04,14,6.90
2018,10,17,04,15,6.90
2018,10,17,04,16,6.90
2018,10,17,04,17,6.90
2018,10,17,04,18,6.90
2018,10,17,04,19,6.90
2018,10,17,04,20,6.90
2018,10,17,04,21,6.90
2018,10,17,04,22,6.90
2018,10,17,04,23,6.90
2018,10,17,04,24,6.90
2018,10,17,04,25,6.90
2018,10,17,04,26,6.90
2018,10,17,04,27,6.90
2018,10,17,04,28,6.90
2018,10,17,04,29,6.90
2018,10,17,04,30,6.90
2018,10,17,04,31,6.90
2018,10,17,04,32,6.90
2018,10,17,04,33,7.00
2018,10,17,04,34,7.00
2018,10,17,04,35,6.90
2018,10,17,04,36,6.90
2018,10,17,04,37,6.90
2018,10,17,04,38,6.90
2018,10,17,04,39,6.90
2018,10,17,04,40,6.90
2018,10,17,04,41,6.90
2018,10,17,04,42,6.90
2018,10,17,04,43,6.90
2018,10,17,04,44,6.90
2018,10,17,04,45,6.90
2018,10,17,04,46,6.90
2018,10,17,04,47,6.80
2018,10,17,04,48,6.80
2018,10,17,04,49,6.80
2018,10,17,04,50,6.80
2018,10,17,04,51,6.80
2018,10,17,04,52,6.80
2018,10,17,04,53,6.80
2018,10,17,04,54,6.80
2018,10,17,04,55,6.80
2018,10,17,04,56,6.80
2018,10,17,04,57,6.80
2018,10,17,04,58,6.80
2018,10,17,04,59,6.80
2018,10,17,05,00,6.80
2018,10,17,05,01,6.80
2018,10,17,05,02,6.80
2018,10,17,05,03,6.70
2018,10,17,05,04,6.70
2018,10,17,05,05,6.70
2018,10,17,05,06,6.70
2018,10,17,05,07,6.70
2018,10,17,05,08,6.70
2018,10,17,05,09,6.70
2018,10,17,05,10,6.70
2018,10,17,05,11,6.70
2018,10,17,05,12,6.70
2018,10,17,05,13,6.70
2018,10,17,05,14,6.70
2018,10,17,05,15,6.60
2018,10,17,05,16,6.60
2018,10,17,05,17,6.60
2018,10,17,05,18,6.60
2018,10,17,05,19,6.60
2018,10,17,05,20,6.60
2018,10,17,05,21,6.60
2018,10,17,05,22,6.60
2018,10,17,05,23,6.60
2018,10,17,05,24,6.60
2018,10,17,05,25,6.60
2018,10,17,05,26,6.60
2018,10,17,05,27,6.60
2018,10,17,05,28,6.50
2018,10,17,05,29,6.50
2018,10,17,05,30,6.50
2018,10,17,05,31,6.50
2018,10,17,05,32,6.50
2018,10,17,05,33,6.50
2018,10,17,05,34,6.50
2018,10,17,05,35,6.40
2018,10,17,05,36,6.50
2018,10,17,05,37,6.40
2018,10,17,05,38,6.40
2018,10,17,05,39,6.40
2018,10,17,05,40,6.40
2018,10,17,05,41,6.40
2018,10,17,05,42,6.40
2018,10,17,05,43,6.40
2018,10,17,05,44,6.40
2018,10,17,05,45,6.40
2018,10,17,05,46,6.40
2018,10,17,05,47,6.40
2018,10,17,05,48,6.30
2018,10,17,05,49,6.30
2018,10,17,05,50,6.30
2018,10,17,05,51,6.30
2018,10,17,05,52,6.30
2018,10,17,05,53,6.30
2018,10,17,05,54,6.30
2018,10,17,05,55,6.30
2018,10,17,05,56,6.30
2018,10,17,05,57,6.30
2018,10,17,05,58,6.30
2018,10,17,05,59,6.30
2018,10,17,06,00,6.30
2018,10,17,06,01,6.30
2018,10,17,06,02,6.30
2018,10,17,06,03,6.30
2018,10,17,06,04,6.30
2018,10,17,06,05,6.30
2018,10,17,06,06,6.30
2018,10,17,06,07,6.30
2018,10,17,06,08,6.30
2018,10,17,06,09,6.30
2018,10,17,06,10,6.30
2018,10,17,06,11,6.30
2018,10,17,06,12,6.30
2018,10,17,06,13,6.30
2018,10,17,06,14,6.30
2018,10,17,06,15,6.30
2018,10,17,06,16,6.30
2018,10,17,06,17,6.30
2018,10,17,06,18,6.30
2018,10,17,06,19,6.30
2018,10,17,06,20,6.30
2018,10,17,06,21,6.30
2018,10,17,06,22,6.30
2018,10,17,06,23,6.30
2018,10,17,06,24,6.20
2018,10,17,06,25,6.20
2018,10,17,06,26,6.20
2018,10,17,06,27,6.20
2018,10,17,06,28,6.20
2018,10,17,06,29,6.20
2018,10,17,06,30,6.20
2018,10,17,06,31,6.20
2018,10,17,06,32,6.20
2018,10,17,06,33,6.20
2018,10,17,06,34,6.20
2018,10,17,06,35,6.20
2018,10,17,06,36,6.20
2018,10,17,06,37,6.20
2018,10,17,06,38,6.20
2018,10,17,06,39,6.20
2018,10,17,06,40,6.20
2018,10,17,06,41,6.20
2018,10,17,06,42,6.20
2018,10,17,06,43,6.20
2018,10,17,06,44,6.20
2018,10,17,06,45,6.20
2018,10,17,06,46,6.20
2018,10,17,06,47,6.20
2018,10,17,06,48,6.20
2018,10,17,06,49,6.20
2018,10,17,06,50,6.20
2018,10,17,06,51,6.20
2018,10,17,06,52,6.20
2018,10,17,06,53,6.20
2018,10,17,06,54,6.20
2018,10,17,06,55,6.20
2018,10,17,06,56,6.20
2018,10,17,06,57,6.20
2018,10,17,06,58,6.20
2018,10,17,06,59,6.10
2018,10,17,07,00,6.10
2018,10,17,07,01,6.10
2018,10,17,07,02,6.10
2018,10,17,07,03,6.10
2018,10,17,07,04,6.10
2018,10,17,07,05,6.10
2018,10,17,07,06,6.20
2018,10,17,07,07,6.20
2018,10,17,07,08,6.20
2018,10,17,07,09,6.20
2018,10,17,07,10,6.20
2018,10,17,07,11,6.20
2018,10,17,07,12,6.20
2018,10,17,07,13,6.20
2018,10,17,07,14,6.20
2018,10,17,07,15,6.20
2018,10,17,07,16,6.20
2018,10,17,07,17,6.20
2018,10,17,07,18,6.20
2018,10,17,07,19,6.20
2018,10,17,07,20,6.20
2018,10,17,07,21,6.20
2018,10,17,07,22,6.20
2018,10,17,07,23,6.20
2018,10,17,07,24,6.20
2018,10,17,07,25,6.20
2018,10,17,07,26,6.20
2018,10,17,07,27,6.20
2018,10,17,07,28,6.20
2018,10,17,07,29,6.20
2018,10,17,07,30,6.20
2018,10,17,07,31,6.20
2018,10,17,07,32,6.20
2018,10,17,07,33,6.20
2018,10,17,07,34,6.30
2018,10,17,07,35,6.30
2018,10,17,07,36,6.30
2018,10,17,07,37,6.30
2018,10,17,07,38,6.30
2018,10,17,07,39,6.30
2018,10,17,07,40,6.30
2018,10,17,07,41,6.30
2018,10,17,07,42,6.30
2018,10,17,07,43,6.30
2018,10,17,07,44,6.30
2018,10,17,07,45,6.30
2018,10,17,07,46,6.30
2018,10,17,07,47,6.30
2018,10,17,07,48,6.30
2018,10,17,07,49,6.30
2018,10,17,07,50,6.30
2018,10,17,07,51,6.30
2018,10,17,07,52,6.30
2018,10,17,07,53,6.30
2018,10,17,07,54,6.30
2018,10,17,07,55,6.30
2018,10,17,07,56,6.30
2018,10,17,07,57,6.30
2018,10,17,07,58,6.30
2018,10,17,07,59,6.40
2018,10,17,08,00,6.40
2018,10,17,08,01,6.40
2018,10,17,08,02,6.40
2018,10,17,08,03,6.40
2018,10,17,08,04,6.40
2018,10,17,08,05,6.40
2018,10,17,08,06,6.40
2018,10,17,08,07,6.40
2018,10,17,08,08,6.40
2018,10,17,08,09,6.40
2018,10,17,08,10,6.40
2018,10,17,08,11,6.40
2018,10,17,08,12,6.40
2018,10,17,08,13,6.40
2018,10,17,08,14,6.40
2018,10,17,08,15,6.40
2018,10,17,08,16,6.50
2018,10,17,08,17,6.50
2018,10,17,08,18,6.50
2018,10,17,08,19,6.50
2018,10,17,08,20,6.50
2018,10,17,08,21,6.60
2018,10,17,08,22,6.60
2018,10,17,08,23,6.60
2018,10,17,08,24,6.60
2018,10,17,08,25,6.60
2018,10,17,08,26,6.70
2018,10,17,08,27,6.70
2018,10,17,08,28,6.70
2018,10,17,08,29,6.80
2018,10,17,08,30,6.80
2018,10,17,08,31,6.80
2018,10,17,08,32,6.80
2018,10,17,08,33,6.80
2018,10,17,08,34,6.90
2018,10,17,08,35,6.90
2018,10,17,08,36,6.90
2018,10,17,08,37,7.00
2018,10,17,08,38,7.00
2018,10,17,08,39,7.10
2018,10,17,08,40,7.10
2018,10,17,08,41,7.20
2018,10,17,08,42,7.20
2018,10,17,08,43,7.30
2018,10,17,08,44,7.30
2018,10,17,08,45,7.30
2018,10,17,08,46,7.40
2018,10,17,08,47,7.40
2018,10,17,08,48,7.40
2018,10,17,08,49,7.40
2018,10,17,08,50,7.50
2018,10,17,08,51,7.50
2018,10,17,08,52,7.50
2018,10,17,08,53,7.60
2018,10,17,08,54,7.60
2018,10,17,08,55,7.70
2018,10,17,08,56,7.80
2018,10,17,08,57,7.80
2018,10,17,08,58,7.90
2018,10,17,08,59,8.00
2018,10,17,09,00,8.10
2018,10,17,09,01,8.10
2018,10,17,09,02,8.20
2018,10,17,09,03,8.20
2018,10,17,09,04,8.30
2018,10,17,09,05,8.30
2018,10,17,09,06,8.30
2018,10,17,09,07,8.40
2018,10,17,09,08,8.40
2018,10,17,09,09,8.40
2018,10,17,09,10,8.50
2018,10,17,09,11,8.60
2018,10,17,09,12,8.60
2018,10,17,09,13,8.70
2018,10,17,09,14,8.70
2018,10,17,09,15,8.80
2018,10,17,09,16,8.80
2018,10,17,09,17,8.90
2018,10,17,09,18,9.00
2018,10,17,09,19,9.10
2018,10,17,09,20,9.10
2018,10,17,09,21,9.20
2018,10,17,09,22,9.20
2018,10,17,09,23,9.30
2018,10,17,09,24,9.40
2018,10,17,09,25,9.40
2018,10,17,09,26,9.50
2018,10,17,09,27,9.50
2018,10,17,09,28,9.60
2018,10,17,09,29,9.60
2018,10,17,09,30,9.70
2018,10,17,09,31,9.70
2018,10,17,09,32,9.70
2018,10,17,09,33,9.80
2018,10,17,09,34,9.80
2018,10,17,09,35,9.80
2018,10,17,09,36,9.90
2018,10,17,09,37,9.90
2018,10,17,09,38,10.00
2018,10,17,09,39,10.10
2018,10,17,09,40,10.20
2018,10,17,09,41,10.30
2018,10,17,09,42,10.40
2018,10,17,09,43,10.40
2018,10,17,09,44,10.50
2018,10,17,09,45,10.60
2018,10,17,09,46,10.60
2018,10,17,09,47,10.70
2018,10,17,09,48,10.80
2018,10,17,09,49,10.80
2018,10,17,09,50,10.90
2018,10,17,09,51,11.00
2018,10,17,09,52,11.10
2018,10,17,09,53,11.10
2018,10,17,09,54,11.20
2018,10,17,09,55,11.30
2018,10,17,09,56,11.40
2018,10,17,09,57,11.50
2018,10,17,09,58,11.60
2018,10,17,09,59,11.70
2018,10,17,10,00,11.80
2018,10,17,10,01,11.80
2018,10,17,10,02,11.90
2018,10,17,10,03,12.00
2018,10,17,10,04,12.10
2018,10,17,10,05,12.10
2018,10,17,10,06,12.20
2018,10,17,10,07,12.30
2018,10,17,10,08,12.30
2018,10,17,10,09,12.40
2018,10,17,10,10,12.50
2018,10,17,10,11,12.70
2018,10,17,10,12,12.80
2018,10,17,10,13,13.00
2018,10,17,10,14,13.10
2018,10,17,10,15,13.20
2018,10,17,10,16,13.30
2018,10,17,10,17,13.40
2018,10,17,10,18,13.50
2018,10,17,10,19,13.60
2018,10,17,10,20,13.70
2018,10,17,10,21,13.80
2018,10,17,10,22,13.80
2018,10,17,10,23,13.90
2018,10,17,10,24,14.00
2018,10,17,10,25,14.00
2018,10,17,10,26,14.10
2018,10,17,10,27,14.10
2018,10,17,10,28,14.20
2018,10,17,10,29,14.30
2018,10,17,10,30,14.30
2018,10,17,10,31,14.40
2018,10,17,10,32,14.40
2018,10,17,10,33,14.50
2018,10,17,10,34,14.50
2018,10,17,10,35,14.60
2018,10,17,10,36,14.70
2018,10,17,10,37,14.80
2018,10,17,10,38,14.80
2018,10,17,10,39,14.90
2018,10,17,10,40,15.00
2018,10,17,10,41,15.00
2018,10,17,10,42,15.10
2018,10,17,10,43,15.20
2018,10,17,10,44,15.20
2018,10,17,10,45,15.30
2018,10,17,10,46,15.40
2018,10,17,10,47,15.40
2018,10,17,10,48,15.50
2018,10,17,10,49,15.50
2018,10,17,10,50,15.60
2018,10,17,10,51,15.70
2018,10,17,10,52,15.70
2018,10,17,10,53,15.80
2018,10,17,10,54,15.80
2018,10,17,10,55,15.90
2018,10,17,10,56,15.90
2018,10,17,10,57,16.00
2018,10,17,10,58,16.00
2018,10,17,10,59,16.10
2018,10,17,11,00,16.10
2018,10,17,11,01,16.10
2018,10,17,11,02,16.20
2018,10,17,11,03,16.20
2018,10,17,11,04,16.20
2018,10,17,11,05,16.20
2018,10,17,11,06,16.30
2018,10,17,11,07,16.30
2018,10,17,11,08,16.30
2018,10,17,11,09,16.40
2018,10,17,11,10,16.40
2018,10,17,11,11,16.50
2018,10,17,11,12,16.50
2018,10,17,11,13,16.60
2018,10,17,11,14,16.60
2018,10,17,11,15,16.70
2018,10,17,11,16,16.70
2018,10,17,11,17,16.70
2018,10,17,11,18,16.70
2018,10,17,11,19,16.80
2018,10,17,11,20,16.80
2018,10,17,11,21,16.80
2018,10,17,11,22,16.90
2018,10,17,11,23,17.00
2018,10,17,11,24,17.00
2018,10,17,11,25,17.10
2018,10,17,11,26,17.10
2018,10,17,11,27,17.20
2018,10,17,11,28,17.20
2018,10,17,11,29,17.20
2018,10,17,11,30,17.30
2018,10,17,11,31,17.30
2018,10,17,11,32,17.40
2018,10,17,11,33,17.40
2018,10,17,11,34,17.50
2018,10,17,11,35,17.60
2018,10,17,11,36,17.60
2018,10,17,11,37,17.70
2018,10,17,11,38,17.80
2018,10,17,11,39,17.90
2018,10,17,11,40,17.90
2018,10,17,11,41,17.90
2018,10,17,11,42,17.90
2018,10,17,11,43,17.90
2018,10,17,11,44,17.90
2018,10,17,11,45,17.90
2018,10,17,11,46,17.90
2018,10,17,11,47,18.00
2018,10,17,11,48,18.00
2018,10,17,11,49,18.00
2018,10,17,11,50,18.00
2018,10,17,11,51,18.10
2018,10,17,11,52,18.10
2018,10,17,11,53,18.20
2018,10,17,11,54,18.20
2018,10,17,11,55,18.30
2018,10,17,11,56,18.30
2018,10,17,11,57,18.40
2018,10,17,11,58,18.40
2018,10,17,11,59,18.50
2018,10,17,12,00,18.50
2018,10,17,12,01,18.60
2018,10,17,12,02,18.60
2018,10,17,12,03,18.60
2018,10,17,12,04,18.60
2018,10,17,12,05,18.60
2018,10,17,12,06,18.60
2018,10,17,12,07,18.60
2018,10,17,12,08,18.70
2018,10,17,12,09,18.70
2018,10,17,12,10,18.70
2018,10,17,12,11,18.80
2018,10,17,12,12,18.80
2018,10,17,12,13,18.90
2018,10,17,12,14,18.90
2018,10,17,12,15,18.90
2018,10,17,12,16,19.00
2018,10,17,12,17,19.00
2018,10,17,12,18,19.00
2018,10,17,12,19,19.00
2018,10,17,12,20,19.10
2018,10,17,12,21,19.10
2018,10,17,12,22,19.20
2018,10,17,12,23,19.20
2018,10,17,12,24,19.30
2018,10,17,12,25,19.30
2018,10,17,12,26,19.30
2018,10,17,12,27,19.40
2018,10,17,12,28,19.40
2018,10,17,12,29,19.40
2018,10,17,12,30,19.40
2018,10,17,12,31,19.50
2018,10,17,12,32,19.50
2018,10,17,12,33,19.60
2018,10,17,12,34,19.60
2018,10,17,12,35,19.70
2018,10,17,12,36,19.70
2018,10,17,12,37,19.70
2018,10,17,12,38,19.70
2018,10,17,12,39,19.80
2018,10,17,12,40,19.80
2018,10,17,12,41,19.80
2018,10,17,12,42,19.80
2018,10,17,12,43,19.80
2018,10,17,12,44,19.80
2018,10,17,12,45,19.90
2018,10,17,12,46,19.90
2018,10,17,12,47,19.90
2018,10,17,12,48,19.90
2018,10,17,12,49,19.80
2018,10,17,12,50,19.80
2018,10,17,12,51,19.80
2018,10,17,12,52,19.80
2018,10,17,12,53,19.80
2018,10,17,12,54,19.80
2018,10,17,12,55,19.80
2018,10,17,12,56,19.90
2018,10,17,12,57,19.90
2018,10,17,12,58,20.00
2018,10,17,12,59,20.10
2018,10,17,13,00,20.20
2018,10,17,13,01,20.20
2018,10,17,13,02,20.20
2018,10,17,13,03,20.30
2018,10,17,13,04,20.30
2018,10,17,13,05,20.30
2018,10,17,13,06,20.30
2018,10,17,13,07,20.30
2018,10,17,13,08,20.40
2018,10,17,13,09,20.40
2018,10,17,13,10,20.40
2018,10,17,13,11,20.40
2018,10,17,13,12,20.40
2018,10,17,13,13,20.30
2018,10,17,13,14,20.30
2018,10,17,13,15,20.40
2018,10,17,13,16,20.40
2018,10,17,13,17,20.50
2018,10,17,13,18,20.60
2018,10,17,13,19,20.60
2018,10,17,13,20,20.60
2018,10,17,13,21,20.70
2018,10,17,13,22,20.70
2018,10,17,13,23,20.80
2018,10,17,13,24,20.90
2018,10,17,13,25,21.00
2018,10,17,13,26,21.00
2018,10,17,13,27,21.00
2018,10,17,13,28,21.00
2018,10,17,13,29,21.00
2018,10,17,13,30,21.10
2018,10,17,13,31,21.10
2018,10,17,13,32,21.10
2018,10,17,13,33,21.10
2018,10,17,13,34,21.10
2018,10,17,13,35,21.20
2018,10,17,13,36,21.20
2018,10,17,13,37,21.20
2018,10,17,13,38,21.30
2018,10,17,13,39,21.30
2018,10,17,13,40,21.30
2018,10,17,13,41,21.40
2018,10,17,13,42,21.40
2018,10,17,13,43,21.40
2018,10,17,13,44,21.40
2018,10,17,13,45,21.40
2018,10,17,13,46,21.50
2018,10,17,13,47,21.50
2018,10,17,13,48,21.60
2018,10,17,13,49,21.60
2018,10,17,13,50,21.60
2018,10,17,13,51,21.60
2018,10,17,13,52,21.70
2018,10,17,13,53,21.70
2018,10,17,13,54,21.70
2018,10,17,13,55,21.70
2018,10,17,13,56,21.60
2018,10,17,13,57,21.60
2018,10,17,13,58,21.60
2018,10,17,13,59,21.70
2018,10,17,14,00,21.80
2018,10,17,14,01,21.80
2018,10,17,14,02,21.80
2018,10,17,14,03,21.90
2018,10,17,14,04,21.90
2018,10,17,14,05,22.00
2018,10,17,14,06,22.10
2018,10,17,14,07,22.20
2018,10,17,14,08,22.30
2018,10,17,14,09,22.30
2018,10,17,14,10,22.40
2018,10,17,14,11,22.40
2018,10,17,14,12,22.40
2018,10,17,14,13,22.40
2018,10,17,14,14,22.40
2018,10,17,14,15,22.50
2018,10,17,14,16,22.50
2018,10,17,14,17,22.50
2018,10,17,14,18,22.50
2018,10,17,14,19,22.60
2018,10,17,14,20,22.60
2018,10,17,14,21,22.60
2018,10,17,14,22,22.60
2018,10,17,14,23,22.60
2018,10,17,14,24,22.50
2018,10,17,14,25,22.50
2018,10,17,14,26,22.50
2018,10,17,14,27,22.50
2018,10,17,14,28,22.50
2018,10,17,14,29,22.40
2018,10,17,14,30,22.40
2018,10,17,14,31,22.40
2018,10,17,14,32,22.40
2018,10,17,14,33,22.30
2018,10,17,14,34,22.20
2018,10,17,14,35,22.20
2018,10,17,14,36,22.10
2018,10,17,14,37,22.10
2018,10,17,14,38,22.20
2018,10,17,14,39,22.20
2018,10,17,14,40,22.20
2018,10,17,14,41,22.20
2018,10,17,14,42,22.20
2018,10,17,14,43,22.30
2018,10,17,14,44,22.30
2018,10,17,14,45,22.40
2018,10,17,14,46,22.40
2018,10,17,14,47,22.40
2018,10,17,14,48,22.40
2018,10,17,14,49,22.50
2018,10,17,14,50,22.50
2018,10,17,14,51,22.60
2018,10,17,14,52,22.60
2018,10,17,14,53,22.60
2018,10,17,14,54,22.60
2018,10,17,14,55,22.70
2018,10,17,14,56,22.70
2018,10,17,14,57,22.70
2018,10,17,14,58,22.70
2018,10,17,14,59,22.60
2018,10,17,15,00,22.60
2018,10,17,15,01,22.60
2018,10,17,15,02,22.60
2018,10,17,15,03,22.60
2018,10,17,15,04,22.60
2018,10,17,15,05,22.60
2018,10,17,15,06,22.50
2018,10,17,15,07,22.40
2018,10,17,15,08,22.30
2018,10,17,15,09,22.20
2018,10,17,15,10,22.10
2018,10,17,15,11,22.00
2018,10,17,15,12,22.00
2018,10,17,15,13,21.90
2018,10,17,15,14,21.90
2018,10,17,15,15,21.90
2018,10,17,15,16,21.80
2018,10,17,15,17,21.80
2018,10,17,15,18,21.80
2018,10,17,15,19,21.80
2018,10,17,15,20,21.80
2018,10,17,15,21,21.80
2018,10,17,15,22,21.80
2018,10,17,15,23,21.80
2018,10,17,15,24,21.80
2018,10,17,15,25,21.80
2018,10,17,15,26,21.80
2018,10,17,15,27,21.80
2018,10,17,15,28,21.80
2018,10,17,15,29,21.80
2018,10,17,15,30,21.80
2018,10,17,15,31,21.80
2018,10,17,15,32,21.70
2018,10,17,15,33,21.70
2018,10,17,15,34,21.70
2018,10,17,15,35,21.70
2018,10,17,15,36,21.60
2018,10,17,15,37,21.60
2018,10,17,15,38,21.60
2018,10,17,15,39,21.60
2018,10,17,15,40,21.60
2018,10,17,15,41,21.60
2018,10,17,15,42,21.60
2018,10,17,15,43,21.50
2018,10,17,15,44,21.50
2018,10,17,15,45,21.60
2018,10,17,15,46,21.60
2018,10,17,15,47,21.70
2018,10,17,15,48,21.70
2018,10,17,15,49,21.70
2018,10,17,15,50,21.70
2018,10,17,15,51,21.70
2018,10,17,15,52,21.70
2018,10,17,15,53,21.70
2018,10,17,15,54,21.70
2018,10,17,15,55,21.70
2018,10,17,15,56,21.70
2018,10,17,15,57,21.70
2018,10,17,15,58,21.70
2018,10,17,15,59,21.70
2018,10,17,16,00,21.70
2018,10,17,16,01,21.70
2018,10,17,16,02,21.70
2018,10,17,16,03,21.70
2018,10,17,16,04,21.70
2018,10,17,16,05,21.70
2018,10,17,16,06,21.70
2018,10,17,16,07,21.70
2018,10,17,16,08,21.70
2018,10,17,16,09,21.70
2018,10,17,16,10,21.70
2018,10,17,16,11,21.70
2018,10,17,16,12,21.60
2018,10,17,16,13,21.60
2018,10,17,16,14,21.60
2018,10,17,16,15,21.50
2018,10,17,16,16,21.50
2018,10,17,16,17,21.50
2018,10,17,16,18,21.50
2018,10,17,16,19,21.50
2018,10,17,16,20,21.50
2018,10,17,16,21,21.50
2018,10,17,16,22,21.50
2018,10,17,16,23,21.50
2018,10,17,16,24,21.50
2018,10,17,16,25,21.50
2018,10,17,16,26,21.50
2018,10,17,16,27,21.50
2018,10,17,16,28,21.40
2018,10,17,16,29,21.50
2018,10,17,16,30,21.50
2018,10,17,16,31,21.50
2018,10,17,16,32,21.50
2018,10,17,16,33,21.50
2018,10,17,16,34,21.60
2018,10,17,16,35,21.60
2018,10,17,16,36,21.60
2018,10,17,16,37,21.60
2018,10,17,16,38,21.60
2018,10,17,16,39,21.60
2018,10,17,16,40,21.60
2018,10,17,16,41,21.60
2018,10,17,16,42,21.60
2018,10,17,16,43,21.60
2018,10,17,16,44,21.60
2018,10,17,16,45,21.60
2018,10,17,16,46,21.60
2018,10,17,16,47,21.60
2018,10,17,16,48,21.60
2018,10,17,16,49,21.60
2018,10,17,16,50,21.60
2018,10,17,16,51,21.60
2018,10,17,16,52,21.60
2018,10,17,16,53,21.60
2018,10,17,16,54,21.60
2018,10,17,16,55,21.60
2018,10,17,16,56,21.60
2018,10,17,16,57,21.60
2018,10,17,16,58,21.60
2018,10,17,16,59,21.60
2018,10,17,17,00,21.50
2018,10,17,17,01,21.50
2018,10,17,17,02,21.50
2018,10,17,17,03,21.50
2018,10,17,17,04,21.50
2018,10,17,17,05,21.40
2018,10,17,17,06,21.40
2018,10,17,17,07,21.40
2018,10,17,17,08,21.40
2018,10,17,17,09,21.40
2018,10,17,17,10,21.40
2018,10,17,17,11,21.40
2018,10,17,17,12,21.40
2018,10,17,17,13,21.40
2018,10,17,17,14,21.40
2018,10,17,17,15,21.40
2018,10,17,17,16,21.40
2018,10,17,17,17,21.40
2018,10,17,17,18,21.40
2018,10,17,17,19,21.40
2018,10,17,17,20,21.40
2018,10,17,17,21,21.40
2018,10,17,17,22,21.40
2018,10,17,17,23,21.40
2018,10,17,17,24,21.30
2018,10,17,17,25,21.30
2018,10,17,17,26,21.30
2018,10,17,17,27,21.30
2018,10,17,17,28,21.30
2018,10,17,17,29,21.30
2018,10,17,17,30,21.20
2018,10,17,17,31,21.20
2018,10,17,17,32,21.20
2018,10,17,17,33,21.10
2018,10,17,17,34,21.10
2018,10,17,17,35,21.00
2018,10,17,17,36,21.00
2018,10,17,17,37,20.90
2018,10,17,17,38,20.90
2018,10,17,17,39,20.90
2018,10,17,17,40,20.80
2018,10,17,17,41,20.80
2018,10,17,17,42,20.70
2018,10,17,17,43,20.70
2018,10,17,17,44,20.70